Borger, TX

5:56 PM CDT on October 16, 2017 (GMT -0500)
Hutchinson County

Weather History for KBGD - January, 2014

Change the Weather History Date:

Friday, January 31, 2014

  Actual Average Record
Temperature  
Mean Temperature 33 °F 40 °F  
Max Temperature 39 °F 53 °F 78 °F (1963)
Min Temperature 26 °F 27 °F 0 °F (1985)
Degree Days  
Heating Degree Days 32 25  
Month to date heating degree days 794 816  
Since 1 July heating degree days 2351 2352  
Cooling Degree Days 0 0  
Month to date cooling degree days 0 0  
Year to date cooling degree days 0 0  
Moisture  
Dew Point 19 °F    
Average Humidity 62    
Maximum Humidity 75    
Minimum Humidity 48    
Precipitation  
Precipitation 0.00 in 0.02 in 0.45 in (1983)
Month to date precipitation 0.07 0.59  
Year to date precipitation 0.07 0.59  
Snow  
Snow 0.00 in - 7.30 in (2002)
Month to date snowfall 1.3  
Since 1 July snowfall 8.5  
Snow Depth 0.00 in    
Sea Level Pressure  
Sea Level Pressure 29.82 in    
Wind  
Wind Speed 9 mph (NE)    
Max Wind Speed 17 mph    
Max Gust Speed 21 mph    
Visibility 10 miles    
Events      
T = Trace of Precipitation, MM = Missing Value Source: NWS Daily Summary

Daily Weather History Graph

Daily Weather History Graph

Search for Another Location

Airport or City:

Trip Planner

Search our weather history database for the weather conditions in past years. The results will help you decide how hot, cold, wet, or windy it might be!

Date:

Astronomy

Jan. 31, 2014 Rise Set
Actual Time 7:46 AM CST 6:12 PM CST
Civil Twilight 7:19 AM CST 6:39 PM CST
Nautical Twilight 6:48 AM CST 7:09 PM CST
Astronomical Twilight 6:18 AM CST 7:39 PM CST
Moon 8:01 AM CST (1/31) 7:34 PM CST (1/31)
Length of Visible Light 11h 19m
Length of Day
10h 25m
New Moon, 1% of the Moon is Illuminated
Jan 31
New Moon
Feb 6
First Quarter
Feb 14
Full
Feb 22
Last Quarter
Mar 1
New

Hourly Weather History & Observations

Time (CST) Temp. Windchill Dew Point Humidity Pressure Visibility Wind Dir Wind Speed Gust Speed Precip Events Conditions
12:51 AM 37.9 °F 32.1 °F 21.0 °F 51% 29.71 in 10.0 mi East 8.1 mph - N/A   Clear
1:51 AM 37.0 °F 30.4 °F 19.9 °F 50% 29.68 in 10.0 mi ESE 9.2 mph - N/A   Clear
2:51 AM 33.1 °F 25.5 °F 21.9 °F 64% 29.71 in 10.0 mi NE 9.2 mph - N/A   Clear
3:51 AM 30.9 °F 22.8 °F 21.0 °F 67% 29.70 in 10.0 mi NE 9.2 mph - N/A   Clear
4:51 AM 28.9 °F 21.1 °F 19.9 °F 69% 29.71 in 10.0 mi NE 8.1 mph - N/A   Clear
5:51 AM 28.0 °F 20.0 °F 19.0 °F 69% 29.73 in 10.0 mi NE 8.1 mph - N/A   Clear
6:51 AM 28.0 °F 20.8 °F 18.0 °F 66% 29.77 in 10.0 mi NE 6.9 mph - N/A   Clear
7:51 AM 27.0 °F 17.3 °F 17.1 °F 66% 29.82 in 10.0 mi North 10.4 mph - N/A   Clear
8:51 AM 26.1 °F 15.6 °F 17.1 °F 69% 29.89 in 10.0 mi North 11.5 mph - N/A   Clear
9:51 AM 27.0 °F 16.1 °F 16.0 °F 63% 29.93 in 10.0 mi North 12.7 mph - N/A   Clear
10:34 AM 28.0 °F 17.0 °F 17.1 °F 63% 29.92 in 10.0 mi North 13.8 mph - N/A   Mostly Cloudy
10:51 AM 27.0 °F 16.7 °F 16.0 °F 63% 29.94 in 10.0 mi North 11.5 mph - N/A   Mostly Cloudy
11:51 AM 30.0 °F 20.0 °F 18.0 °F 61% 29.93 in 10.0 mi NNE 12.7 mph - N/A   Scattered Clouds
12:51 PM 32.0 °F 24.8 °F 18.0 °F 56% 29.89 in 10.0 mi NNE 8.1 mph - N/A   Clear
1:51 PM 34.0 °F 28.0 °F 19.0 °F 54% 29.85 in 10.0 mi NNE 6.9 mph - N/A   Clear
2:51 PM 35.1 °F 28.6 °F 19.0 °F 52% 29.83 in 10.0 mi NE 8.1 mph - N/A   Clear
3:51 PM 35.1 °F 27.4 °F 19.0 °F 52% 29.80 in 10.0 mi ENE 10.4 mph - N/A   Clear
4:51 PM 34.0 °F 26.0 °F 19.0 °F 54% 29.79 in 10.0 mi NE 10.4 mph - N/A   Clear
5:51 PM 33.1 °F 27.7 °F 19.0 °F 56% 29.79 in 10.0 mi East 5.8 mph - N/A   Clear
6:51 PM 30.0 °F 21.7 °F 19.0 °F 64% 29.81 in 10.0 mi NE 9.2 mph - N/A   Clear
7:51 PM 28.0 °F 18.6 °F 19.0 °F 69% 29.83 in 10.0 mi ENE 10.4 mph - N/A   Clear
8:51 PM 27.0 °F 18.7 °F 19.0 °F 72% 29.84 in 10.0 mi NE 8.1 mph - N/A   Overcast
9:51 PM 27.0 °F 18.0 °F 19.0 °F 72% 29.85 in 10.0 mi NE 9.2 mph - N/A   Mostly Cloudy
10:51 PM 27.0 °F 19.5 °F 19.0 °F 72% 29.85 in 10.0 mi ENE 6.9 mph - N/A   Partly Cloudy
11:51 PM 26.1 °F 20.5 °F 19.0 °F 75% 29.85 in 10.0 mi ENE 4.6 mph - N/A   Clear